Time,TemperatureF,DewpointF,PressureIn,WindDirection,WindDirectionDegrees,WindSpeedMPH,WindSpeedGustMPH,Humidity,HourlyPrecipIn,Conditions,Clouds,dailyrainin,SoftwareType,DateUTC
2013-01-30 00:03:00,60.0,59.0,30.14,SSE,162,0.0,-999.0,96,-99.99,,,-99.99,,2013-01-30 05:03:00,
2013-01-30 00:12:00,61.0,60.0,30.14,SSE,162,0.0,-999.0,97,-99.99,,,-99.99,,2013-01-30 05:12:00,
2013-01-30 00:22:00,61.0,60.0,30.14,SSE,162,0.0,-999.0,97,-99.99,,,-99.99,,2013-01-30 05:22:00,
2013-01-30 00:32:00,62.0,61.0,30.12,SSE,162,0.0,-999.0,97,-99.99,,,-99.99,,2013-01-30 05:32:00,
2013-01-30 00:43:00,62.0,61.0,30.12,SSE,162,0.0,-999.0,97,-99.99,,,-99.99,,2013-01-30 05:43:00,
2013-01-30 00:52:00,62.0,61.0,30.12,SSE,162,0.0,-999.0,97,-99.99,,,-99.99,,2013-01-30 05:52:00,
2013-01-30 01:02:00,63.0,62.0,30.12,SSE,164,1.0,-999.0,96,-99.99,,,-99.99,,2013-01-30 06:02:00,
2013-01-30 01:11:00,63.0,62.0,30.12,SSE,164,1.0,-999.0,96,-99.99,,,-99.99,,2013-01-30 06:11:00,
2013-01-30 01:21:00,63.0,62.0,30.11,South,172,1.0,-999.0,95,-99.99,,,-99.99,,2013-01-30 06:21:00,
2013-01-30 01:32:00,63.0,61.0,30.11,SSE,161,2.0,-999.0,93,-99.99,,,-99.99,,2013-01-30 06:32:00,
2013-01-30 01:42:00,63.0,61.0,30.11,SSE,161,2.0,-999.0,93,-99.99,,,-99.99,,2013-01-30 06:42:00,
2013-01-30 01:52:00,63.0,60.0,30.10,SE,138,3.0,-999.0,91,-99.99,,,-99.99,,2013-01-30 06:52:00,
2013-01-30 02:02:00,63.0,60.0,30.10,SSE,155,1.0,-999.0,91,-99.99,,,-99.99,,2013-01-30 07:02:00,
2013-01-30 02:11:00,63.0,60.0,30.10,SSE,155,1.0,-999.0,91,-99.99,,,-99.99,,2013-01-30 07:11:00,
2013-01-30 02:21:00,63.0,60.0,30.10,SSE,162,2.0,-999.0,91,-99.99,,,-99.99,,2013-01-30 07:21:00,
2013-01-30 02:32:00,63.0,60.0,30.09,South,171,2.0,-999.0,91,-99.99,,,-99.99,,2013-01-30 07:32:00,
2013-01-30 02:42:00,63.0,60.0,30.09,South,171,2.0,-999.0,91,-99.99,,,-99.99,,2013-01-30 07:42:00,
2013-01-30 02:52:00,63.0,60.0,30.08,SSE,168,2.0,-999.0,90,-99.99,,,-99.99,,2013-01-30 07:52:00,
2013-01-30 03:01:00,64.0,61.0,30.08,SSE,162,1.0,-999.0,90,-99.99,,,-99.99,,2013-01-30 08:01:00,
2013-01-30 03:11:00,64.0,61.0,30.08,SSE,162,1.0,-999.0,90,-99.99,,,-99.99,,2013-01-30 08:11:00,
2013-01-30 03:21:00,64.0,61.0,30.07,SSE,160,3.0,-999.0,89,-99.99,,,-99.99,,2013-01-30 08:21:00,
2013-01-30 03:32:00,63.0,60.0,30.07,SSE,167,1.0,-999.0,89,-99.99,,,-99.99,,2013-01-30 08:32:00,
2013-01-30 03:42:00,63.0,60.0,30.07,SSE,167,1.0,-999.0,89,-99.99,,,-99.99,,2013-01-30 08:42:00,
2013-01-30 03:52:00,63.0,60.0,30.08,South,179,2.0,-999.0,89,-99.99,,,-99.99,,2013-01-30 08:52:00,
2013-01-30 04:02:00,63.0,60.0,30.07,South,176,1.0,-999.0,90,-99.99,,,-99.99,,2013-01-30 09:02:00,
2013-01-30 04:11:00,63.0,60.0,30.07,South,176,1.0,-999.0,90,-99.99,,,-99.99,,2013-01-30 09:11:00,
2013-01-30 04:21:00,63.0,60.0,30.06,South,171,1.0,-999.0,90,-99.99,,,-99.99,,2013-01-30 09:21:00,
2013-01-30 04:32:00,64.0,61.0,30.06,South,171,2.0,-999.0,90,-99.99,,,-99.99,,2013-01-30 09:32:00,
2013-01-30 04:42:00,64.0,61.0,30.06,South,171,2.0,-999.0,90,-99.99,,,-99.99,,2013-01-30 09:42:00,
2013-01-30 04:52:00,64.0,61.0,30.05,South,169,3.0,-999.0,90,-99.99,,,-99.99,,2013-01-30 09:52:00,
2013-01-30 05:01:00,64.0,61.0,30.05,South,169,3.0,-999.0,90,-99.99,,,-99.99,,2013-01-30 10:01:00,
2013-01-30 05:11:00,64.0,61.0,30.05,South,169,3.0,-999.0,90,-99.99,,,-99.99,,2013-01-30 10:11:00,
2013-01-30 05:21:00,64.0,61.0,30.05,South,188,3.0,-999.0,90,-99.99,,,-99.99,,2013-01-30 10:21:00,
2013-01-30 05:32:00,64.0,61.0,30.04,South,174,2.0,-999.0,90,-99.99,,,-99.99,,2013-01-30 10:32:00,
2013-01-30 05:42:00,64.0,61.0,30.04,South,174,2.0,-999.0,90,-99.99,,,-99.99,,2013-01-30 10:42:00,
2013-01-30 05:52:00,65.0,62.0,30.05,SSW,199,3.0,-999.0,90,-99.99,,,-99.99,,2013-01-30 10:52:00,
2013-01-30 06:02:00,65.0,62.0,30.04,SSW,199,3.0,-999.0,89,-99.99,,,-99.99,,2013-01-30 11:02:00,
2013-01-30 06:11:00,65.0,62.0,30.04,SSW,199,3.0,-999.0,89,-99.99,,,-99.99,,2013-01-30 11:11:00,
2013-01-30 06:22:00,66.0,62.0,30.04,SSE,165,4.0,-999.0,88,-99.99,,,-99.99,,2013-01-30 11:22:00,
2013-01-30 06:33:00,66.0,62.0,30.04,South,172,5.0,-999.0,87,-99.99,,,-99.99,,2013-01-30 11:33:00,
2013-01-30 06:42:00,66.0,62.0,30.04,South,172,5.0,-999.0,87,-99.99,,,-99.99,,2013-01-30 11:42:00,
2013-01-30 06:52:00,66.0,62.0,30.03,South,179,4.0,-999.0,87,-99.99,,,-99.99,,2013-01-30 11:52:00,
2013-01-30 07:02:00,66.0,62.0,30.03,SSE,161,4.0,-999.0,86,-99.99,,,-99.99,,2013-01-30 12:02:00,
2013-01-30 07:12:00,66.0,62.0,30.03,SSE,161,4.0,-999.0,86,-99.99,,,-99.99,,2013-01-30 12:12:00,
2013-01-30 07:22:00,66.0,62.0,30.03,SSE,154,5.0,-999.0,87,-99.99,,,-99.99,,2013-01-30 12:22:00,
2013-01-30 07:33:00,66.0,62.0,30.03,South,176,4.0,-999.0,87,-99.99,,,-99.99,,2013-01-30 12:33:00,
2013-01-30 07:43:00,66.0,62.0,30.03,South,176,4.0,-999.0,87,-99.99,,,-99.99,,2013-01-30 12:43:00,
2013-01-30 08:03:00,65.0,61.0,30.03,SSE,155,4.0,-999.0,87,-99.99,,,-99.99,,2013-01-30 13:03:00,
2013-01-30 08:12:00,65.0,61.0,30.03,SSE,155,4.0,-999.0,87,-99.99,,,-99.99,,2013-01-30 13:12:00,
2013-01-30 08:23:00,65.0,61.0,30.03,South,182,5.0,-999.0,87,-99.99,,,-99.99,,2013-01-30 13:23:00,
2013-01-30 08:33:00,66.0,62.0,30.02,SSW,203,5.0,-999.0,86,-99.99,,,-99.99,,2013-01-30 13:33:00,
2013-01-30 08:43:00,66.0,62.0,30.02,SSW,203,5.0,-999.0,86,-99.99,,,-99.99,,2013-01-30 13:43:00,
2013-01-30 08:52:00,66.0,62.0,30.03,SSE,162,3.0,-999.0,86,-99.99,,,-99.99,,2013-01-30 13:52:00,
2013-01-30 09:03:00,67.0,62.0,30.03,SSE,164,4.0,-999.0,85,-99.99,,,-99.99,,2013-01-30 14:03:00,
2013-01-30 09:12:00,67.0,62.0,30.03,SSE,164,4.0,-999.0,85,-99.99,,,-99.99,,2013-01-30 14:12:00,
2013-01-30 09:23:00,67.0,62.0,30.01,South,184,4.0,-999.0,84,-99.99,,,-99.99,,2013-01-30 14:23:00,
2013-01-30 09:33:00,68.0,62.0,30.01,SSE,164,7.0,-999.0,82,-99.99,,,-99.99,,2013-01-30 14:33:00,
2013-01-30 09:42:00,68.0,62.0,30.01,SSE,164,7.0,-999.0,82,-99.99,,,-99.99,,2013-01-30 14:42:00,
2013-01-30 09:52:00,68.0,62.0,30.01,SE,140,8.0,-999.0,81,-99.99,,,-99.99,,2013-01-30 14:52:00,
2013-01-30 10:03:00,69.0,63.0,30.00,South,169,7.0,-999.0,80,-99.99,,,-99.99,,2013-01-30 15:03:00,
2013-01-30 10:12:00,69.0,63.0,30.00,South,169,7.0,-999.0,80,-99.99,,,-99.99,,2013-01-30 15:12:00,
2013-01-30 10:23:00,70.0,63.0,29.99,SSE,148,6.0,-999.0,78,-99.99,,,-99.99,,2013-01-30 15:23:00,
2013-01-30 10:33:00,70.0,62.0,29.99,South,185,5.0,-999.0,77,-99.99,,,-99.99,,2013-01-30 15:33:00,
2013-01-30 10:43:00,70.0,62.0,29.99,South,185,5.0,-999.0,77,-99.99,,,-99.99,,2013-01-30 15:43:00,
2013-01-30 10:53:00,70.0,62.0,29.99,SE,145,8.0,-999.0,76,-99.99,,,-99.99,,2013-01-30 15:53:00,
2013-01-30 11:03:00,70.0,62.0,29.99,SE,145,8.0,-999.0,76,-99.99,,,-99.99,,2013-01-30 16:03:00,
2013-01-30 11:12:00,70.0,62.0,29.99,SE,145,8.0,-999.0,76,-99.99,,,-99.99,,2013-01-30 16:12:00,
2013-01-30 11:23:00,69.0,62.0,29.99,South,176,6.0,-999.0,79,-99.99,,,-99.99,,2013-01-30 16:23:00,
2013-01-30 11:32:00,69.0,62.0,29.99,South,169,6.0,-999.0,79,-99.99,,,-99.99,,2013-01-30 16:32:00,
2013-01-30 11:42:00,69.0,62.0,29.99,South,169,6.0,-999.0,79,-99.99,,,-99.99,,2013-01-30 16:42:00,
2013-01-30 11:52:00,69.0,62.0,29.99,South,169,6.0,-999.0,79,-99.99,,,-99.99,,2013-01-30 16:52:00,
2013-01-30 12:02:00,72.0,63.0,29.96,SSE,162,9.0,-999.0,74,-99.99,,,-99.99,,2013-01-30 17:02:00,
2013-01-30 12:13:00,72.0,63.0,29.96,SSE,162,9.0,-999.0,74,-99.99,,,-99.99,,2013-01-30 17:13:00,
2013-01-30 12:23:00,70.0,63.0,29.97,SSE,150,9.0,-999.0,78,-99.99,,,-99.99,,2013-01-30 17:23:00,
2013-01-30 12:33:00,69.0,63.0,29.96,South,185,8.0,-999.0,80,-99.99,,,-99.99,,2013-01-30 17:33:00,
2013-01-30 12:43:00,69.0,63.0,29.96,South,185,8.0,-999.0,80,-99.99,,,-99.99,,2013-01-30 17:43:00,
2013-01-30 12:53:00,69.0,63.0,29.94,South,184,7.0,-999.0,82,-99.99,,,-99.99,,2013-01-30 17:53:00,
2013-01-30 13:03:00,68.0,63.0,29.93,SSW,210,7.0,-999.0,85,-99.99,,,-99.99,,2013-01-30 18:03:00,
2013-01-30 13:13:00,68.0,63.0,29.93,SSW,210,7.0,-999.0,85,-99.99,,,-99.99,,2013-01-30 18:13:00,
2013-01-30 13:23:00,68.0,64.0,29.93,South,181,6.0,-999.0,87,-99.99,,,-99.99,,2013-01-30 18:23:00,
2013-01-30 13:33:00,68.0,63.0,29.92,South,175,6.0,-999.0,84,-99.99,,,-99.99,,2013-01-30 18:33:00,
2013-01-30 13:43:00,68.0,63.0,29.92,South,175,6.0,-999.0,84,-99.99,,,-99.99,,2013-01-30 18:43:00,
2013-01-30 13:52:00,69.0,63.0,29.91,SSW,209,6.0,-999.0,80,-99.99,,,-99.99,,2013-01-30 18:52:00,
2013-01-30 14:03:00,69.0,63.0,29.91,SSW,209,6.0,-999.0,80,-99.99,,,-99.99,,2013-01-30 19:03:00,
2013-01-30 14:13:00,69.0,63.0,29.91,SSW,209,6.0,-999.0,80,-99.99,,,-99.99,,2013-01-30 19:13:00,
2013-01-30 14:22:00,69.0,62.0,29.88,SSE,155,7.0,-999.0,79,-99.99,,,-99.99,,2013-01-30 19:22:00,
2013-01-30 14:33:00,69.0,61.0,29.88,SSE,158,8.0,-999.0,77,-99.99,,,-99.99,,2013-01-30 19:33:00,
2013-01-30 14:43:00,69.0,61.0,29.88,SSE,158,8.0,-999.0,77,-99.99,,,-99.99,,2013-01-30 19:43:00,
2013-01-30 14:52:00,70.0,62.0,29.86,South,175,8.0,-999.0,77,-99.99,,,-99.99,,2013-01-30 19:52:00,
2013-01-30 15:03:00,69.0,61.0,29.86,SE,144,8.0,-999.0,77,-99.99,,,-99.99,,2013-01-30 20:03:00,
2013-01-30 15:12:00,69.0,61.0,29.86,SE,144,8.0,-999.0,77,-99.99,,,-99.99,,2013-01-30 20:12:00,
2013-01-30 15:22:00,68.0,62.0,29.85,SSE,150,7.0,-999.0,81,-99.99,,,-99.99,,2013-01-30 20:22:00,
2013-01-30 15:33:00,68.0,63.0,29.84,SSE,164,8.0,-999.0,83,-99.99,,,-99.99,,2013-01-30 20:33:00,
2013-01-30 15:42:00,68.0,63.0,29.84,SSE,164,8.0,-999.0,83,-99.99,,,-99.99,,2013-01-30 20:42:00,
2013-01-30 15:52:00,69.0,63.0,29.84,SW,234,7.0,-999.0,82,-99.99,,,-99.99,,2013-01-30 20:52:00,
2013-01-30 16:03:00,70.0,64.0,29.83,SSE,161,8.0,-999.0,81,-99.99,,,-99.99,,2013-01-30 21:03:00,
2013-01-30 16:12:00,70.0,64.0,29.83,SSE,161,8.0,-999.0,81,-99.99,,,-99.99,,2013-01-30 21:12:00,
2013-01-30 16:23:00,70.0,64.0,29.83,SSW,202,9.0,-999.0,80,-99.99,,,-99.99,,2013-01-30 21:23:00,
2013-01-30 16:32:00,69.0,64.0,29.82,South,176,8.0,-999.0,83,-99.99,,,-99.99,,2013-01-30 21:32:00,
2013-01-30 16:42:00,69.0,64.0,29.82,South,176,8.0,-999.0,83,-99.99,,,-99.99,,2013-01-30 21:42:00,
2013-01-30 16:52:00,69.0,64.0,29.82,South,176,8.0,-999.0,83,-99.99,,,-99.99,,2013-01-30 21:52:00,
2013-01-30 17:03:00,69.0,64.0,29.81,South,181,8.0,-999.0,84,-99.99,,,-99.99,,2013-01-30 22:03:00,
2013-01-30 17:12:00,69.0,64.0,29.81,South,181,8.0,-999.0,84,-99.99,,,-99.99,,2013-01-30 22:12:00,
2013-01-30 17:22:00,69.0,64.0,29.80,SE,145,7.0,-999.0,83,-99.99,,,-99.99,,2013-01-30 22:22:00,
2013-01-30 17:32:00,68.0,62.0,29.80,SSE,164,9.0,-999.0,81,-99.99,,,-99.99,,2013-01-30 22:32:00,
2013-01-30 17:42:00,68.0,62.0,29.80,SSE,164,9.0,-999.0,81,-99.99,,,-99.99,,2013-01-30 22:42:00,
2013-01-30 17:52:00,68.0,62.0,29.79,SW,215,8.0,-999.0,82,-99.99,,,-99.99,,2013-01-30 22:52:00,
2013-01-30 18:02:00,68.0,63.0,29.78,SSW,206,6.0,-999.0,83,-99.99,,,-99.99,,2013-01-30 23:02:00,
2013-01-30 18:12:00,68.0,63.0,29.78,SSW,206,6.0,-999.0,83,-99.99,,,-99.99,,2013-01-30 23:12:00,
2013-01-30 18:22:00,67.0,62.0,29.78,South,181,8.0,-999.0,84,-99.99,,,-99.99,,2013-01-30 23:22:00,
2013-01-30 18:33:00,66.0,61.0,29.78,South,179,8.0,-999.0,84,-99.99,,,-99.99,,2013-01-30 23:33:00,
2013-01-30 18:42:00,66.0,61.0,29.78,South,179,8.0,-999.0,84,-99.99,,,-99.99,,2013-01-30 23:42:00,
2013-01-30 18:52:00,66.0,61.0,29.78,SSE,168,7.0,-999.0,85,-99.99,,,-99.99,,2013-01-30 23:52:00,
2013-01-30 19:02:00,66.0,61.0,29.76,South,171,6.0,-999.0,85,-99.99,,,-99.99,,2013-01-31 00:02:00,
2013-01-30 19:11:00,66.0,61.0,29.76,South,171,6.0,-999.0,85,-99.99,,,-99.99,,2013-01-31 00:11:00,
2013-01-30 19:22:00,66.0,61.0,29.76,South,171,6.0,-999.0,85,-99.99,,,-99.99,,2013-01-31 00:22:00,
2013-01-30 19:32:00,66.0,62.0,29.75,SW,217,7.0,-999.0,86,-99.99,,,-99.99,,2013-01-31 00:32:00,
2013-01-30 19:42:00,66.0,62.0,29.75,SW,217,7.0,-999.0,86,-99.99,,,-99.99,,2013-01-31 00:42:00,
2013-01-30 19:53:00,66.0,62.0,29.74,SW,223,7.0,-999.0,86,-99.99,,,-99.99,,2013-01-31 00:53:00,
2013-01-30 20:02:00,66.0,62.0,29.73,SSW,193,7.0,-999.0,86,-99.99,,,-99.99,,2013-01-31 01:02:00,
2013-01-30 20:12:00,66.0,62.0,29.73,SSW,193,7.0,-999.0,86,-99.99,,,-99.99,,2013-01-31 01:12:00,
2013-01-30 20:22:00,66.0,62.0,29.72,SE,145,8.0,-999.0,87,-99.99,,,-99.99,,2013-01-31 01:22:00,
2013-01-30 20:32:00,66.0,62.0,29.72,ESE,113,8.0,-999.0,87,-99.99,,,-99.99,,2013-01-31 01:32:00,
2013-01-30 20:42:00,66.0,62.0,29.72,ESE,113,8.0,-999.0,87,-99.99,,,-99.99,,2013-01-31 01:42:00,
2013-01-30 20:52:00,66.0,62.0,29.72,SSW,208,8.0,-999.0,87,-99.99,,,-99.99,,2013-01-31 01:52:00,
2013-01-30 21:01:00,66.0,62.0,29.72,South,184,6.0,-999.0,86,-99.99,,,-99.99,,2013-01-31 02:01:00,
2013-01-30 21:12:00,66.0,62.0,29.72,South,184,6.0,-999.0,86,-99.99,,,-99.99,,2013-01-31 02:12:00,
2013-01-30 21:22:00,66.0,62.0,29.71,SW,217,7.0,-999.0,86,-99.99,,,-99.99,,2013-01-31 02:22:00,
2013-01-30 21:32:00,67.0,62.0,29.71,SSW,209,9.0,-999.0,85,-99.99,,,-99.99,,2013-01-31 02:32:00,
2013-01-30 21:42:00,67.0,62.0,29.71,SSW,209,9.0,-999.0,85,-99.99,,,-99.99,,2013-01-31 02:42:00,
2013-01-30 21:52:00,67.0,62.0,29.71,SSW,209,9.0,-999.0,85,-99.99,,,-99.99,,2013-01-31 02:52:00,
2013-01-30 22:03:00,67.0,63.0,29.68,SSE,155,10.0,-999.0,86,-99.99,,,-99.99,,2013-01-31 03:03:00,
2013-01-30 22:11:00,67.0,63.0,29.68,SSE,155,10.0,-999.0,86,-99.99,,,-99.99,,2013-01-31 03:11:00,
2013-01-30 22:21:00,67.0,63.0,29.67,SSW,202,9.0,-999.0,86,-99.99,,,-99.99,,2013-01-31 03:21:00,
2013-01-30 22:32:00,67.0,63.0,29.67,SSW,202,9.0,-999.0,86,-99.99,,,-99.99,,2013-01-31 03:32:00,
2013-01-30 22:42:00,67.0,63.0,29.67,SSW,202,9.0,-999.0,86,-99.99,,,-99.99,,2013-01-31 03:42:00,
2013-01-30 22:51:00,67.0,63.0,29.65,SSW,202,11.0,-999.0,86,-99.99,,,-99.99,,2013-01-31 03:51:00,
2013-01-30 23:02:00,67.0,63.0,29.64,SSW,198,9.0,-999.0,86,-99.99,,,-99.99,,2013-01-31 04:02:00,
2013-01-30 23:11:00,67.0,63.0,29.64,SSW,198,9.0,-999.0,86,-99.99,,,-99.99,,2013-01-31 04:11:00,
2013-01-30 23:22:00,67.0,63.0,29.62,South,171,10.0,-999.0,86,-99.99,,,-99.99,,2013-01-31 04:22:00,
2013-01-30 23:32:00,67.0,63.0,29.62,SSW,196,10.0,-999.0,86,-99.99,,,-99.99,,2013-01-31 04:32:00,
2013-01-30 23:41:00,67.0,63.0,29.62,SSW,196,10.0,-999.0,86,-99.99,,,-99.99,,2013-01-31 04:41:00,
2013-01-30 23:51:00,67.0,62.0,29.61,SSW,196,13.0,-999.0,85,-99.99,,,-99.99,,2013-01-31 04:51:00,